EZS23YH LSGG-EGKK

Flight info

Callsign EZS23YH
Flight time 1h 11m
Altitude 36000
Route DIPIR T37 IBABA DCT TUTAX DCT OBURO DCT OKRIX DCT CLM DCT KOPOR DCT KESAX DCT KUNAV
Aircraft A320/M-SDE2E3FGHIJ1RWXYZ/LB1

Departure

Time 2026-05-05 19:18
Airport Geneva International Airport (LSGG)

Arrival

Time 2026-05-05 20:30
Airport London Gatwick Airport (EGKK)
Time Latitude Longitude Altitude Speed Heading
2026-05-05 18:22 46.23503 6.11196 1404 ft 0 kts 136°
2026-05-05 19:08 46.23519 6.11172 1402 ft 4 kts 136°
2026-05-05 19:08 46.23535 6.11150 1402 ft 4 kts 121°
2026-05-05 19:08 46.23539 6.11119 1393 ft 4 kts 59°
2026-05-05 19:09 46.23522 6.11089 1404 ft 3 kts 45°
2026-05-05 19:09 46.23519 6.11084 1402 ft 0 kts 46°
2026-05-05 19:13 46.23526 6.11095 1405 ft 4 kts 46°
2026-05-05 19:13 46.23561 6.11147 1404 ft 10 kts 42°
2026-05-05 19:13 46.23626 6.11129 1397 ft 11 kts 318°
2026-05-05 19:14 46.23688 6.11071 1388 ft 12 kts
2026-05-05 19:14 46.23769 6.11174 1378 ft 19 kts 45°
2026-05-05 19:14 46.23858 6.11304 1376 ft 16 kts 45°
2026-05-05 19:14 46.23944 6.11432 1374 ft 20 kts 46°
2026-05-05 19:15 46.24052 6.11590 1369 ft 24 kts 45°
2026-05-05 19:15 46.24177 6.11774 1364 ft 25 kts 45°
2026-05-05 19:15 46.24301 6.11956 1363 ft 26 kts 46°
2026-05-05 19:15 46.24423 6.12135 1370 ft 23 kts 44°
2026-05-05 19:16 46.24535 6.12300 1372 ft 23 kts 46°
2026-05-05 19:16 46.24654 6.12474 1366 ft 26 kts 45°
2026-05-05 19:16 46.24793 6.12663 1362 ft 25 kts 26°
2026-05-05 19:16 46.24929 6.12726 1365 ft 10 kts 16°
2026-05-05 19:17 46.24981 6.12740 1369 ft 8 kts 355°
2026-05-05 19:17 46.25014 6.12675 1371 ft 9 kts 253°
2026-05-05 19:17 46.24989 6.12632 1372 ft 0 kts 225°
2026-05-05 19:17 46.24988 6.12630 1372 ft 5 kts 225°
2026-05-05 19:18 46.24786 6.12335 1372 ft 77 kts 225°
2026-05-05 19:18 46.24268 6.11574 1374 ft 133 kts 225°
2026-05-05 19:18 46.23521 6.10476 1543 ft 161 kts 224°
2026-05-05 19:18 46.22748 6.09319 2249 ft 160 kts 224°
2026-05-05 19:19 46.21991 6.08203 2797 ft 149 kts 224°
2026-05-05 19:19 46.21214 6.07072 3090 ft 169 kts 224°
2026-05-05 19:19 46.20331 6.05785 3372 ft 192 kts 224°
2026-05-05 19:19 46.19351 6.04356 3621 ft 213 kts 225°
2026-05-05 19:20 46.18251 6.02750 4064 ft 236 kts 225°
2026-05-05 19:20 46.17066 6.01023 4803 ft 246 kts 225°
2026-05-05 19:20 46.15857 5.99262 5734 ft 248 kts 225°
2026-05-05 19:20 46.14646 5.97460 6647 ft 251 kts 225°
2026-05-05 19:21 46.13482 5.95537 7405 ft 259 kts 238°
2026-05-05 19:21 46.12900 5.93060 8193 ft 267 kts 263°
2026-05-05 19:21 46.13135 5.90371 9019 ft 277 kts 288°
2026-05-05 19:21 46.14190 5.88013 9854 ft 288 kts 313°
2026-05-05 19:22 46.15938 5.86526 10590 ft 301 kts 341°
2026-05-05 19:22 46.18008 5.85926 11342 ft 306 kts 347°
2026-05-05 19:22 46.20174 5.85397 11712 ft 327 kts 348°
2026-05-05 19:22 46.22482 5.84844 11995 ft 343 kts 348°
2026-05-05 19:23 46.24871 5.84268 12540 ft 351 kts 348°
2026-05-05 19:23 46.27296 5.83678 13266 ft 355 kts 348°
2026-05-05 19:23 46.29745 5.83075 13965 ft 359 kts 348°
2026-05-05 19:23 46.32219 5.82456 14587 ft 363 kts 347°
2026-05-05 19:24 46.34715 5.81830 14839 ft 365 kts 347°
2026-05-05 19:24 46.37216 5.81204 14903 ft 365 kts 348°
2026-05-05 19:24 46.39707 5.80533 14909 ft 363 kts 343°
2026-05-05 19:24 46.42084 5.79344 14902 ft 360 kts 332°
2026-05-05 19:25 46.44285 5.77640 14901 ft 358 kts 328°
2026-05-05 19:25 46.46463 5.75876 14898 ft 358 kts 328°
2026-05-05 19:25 46.48641 5.74124 14898 ft 358 kts 328°
2026-05-05 19:25 46.50823 5.72370 14898 ft 358 kts 328°
2026-05-05 19:26 46.53000 5.70618 14895 ft 358 kts 328°
2026-05-05 19:26 46.55179 5.68864 14895 ft 358 kts 328°
2026-05-05 19:26 46.57359 5.67106 14895 ft 358 kts 328°
2026-05-05 19:26 46.59536 5.65343 14896 ft 358 kts 328°
2026-05-05 19:27 46.61709 5.63573 14888 ft 358 kts 328°
2026-05-05 19:27 46.63878 5.61800 14901 ft 358 kts 328°
2026-05-05 19:27 46.66018 5.59908 15481 ft 359 kts 319°
2026-05-05 19:27 46.67890 5.57505 16173 ft 360 kts 315°
2026-05-05 19:28 46.69741 5.55031 16832 ft 363 kts 314°
2026-05-05 19:28 46.71603 5.52526 17474 ft 366 kts 314°
2026-05-05 19:28 46.73477 5.49996 18093 ft 369 kts 314°
2026-05-05 19:28 46.75370 5.47432 18637 ft 373 kts 314°
2026-05-05 19:29 46.77280 5.44847 19160 ft 376 kts 314°
2026-05-05 19:29 46.78728 5.42891 19545 ft 379 kts 314°
2026-05-05 19:29 46.80243 5.40844 19946 ft 382 kts 314°
2026-05-05 19:29 46.82201 5.38196 20467 ft 386 kts 314°
2026-05-05 19:30 46.84176 5.35519 20961 ft 389 kts 314°
2026-05-05 19:30 46.86168 5.32816 21462 ft 393 kts 313°
2026-05-05 19:30 46.88176 5.30085 21966 ft 396 kts 313°
2026-05-05 19:30 46.90202 5.27331 22430 ft 400 kts 313°
2026-05-05 19:31 46.92249 5.24549 22904 ft 403 kts 313°
2026-05-05 19:31 46.94322 5.21759 23381 ft 407 kts 314°
2026-05-05 19:31 46.96403 5.19007 23776 ft 410 kts 315°
2026-05-05 19:31 46.98677 5.16429 24169 ft 415 kts 320°
2026-05-05 19:32 47.01016 5.13928 24573 ft 418 kts 320°
2026-05-05 19:32 47.03386 5.11445 24960 ft 419 kts 321°
2026-05-05 19:32 47.05723 5.09017 25084 ft 406 kts 321°
2026-05-05 19:32 47.08045 5.06602 25218 ft 414 kts 321°
2026-05-05 19:33 47.10409 5.04128 25436 ft 421 kts 321°
2026-05-05 19:33 47.12799 5.01618 25778 ft 424 kts 321°
2026-05-05 19:33 47.15206 4.99084 26147 ft 427 kts 321°
2026-05-05 19:33 47.17626 4.96532 26519 ft 429 kts 321°
2026-05-05 19:34 47.20057 4.93961 26927 ft 431 kts 321°
2026-05-05 19:34 47.22492 4.91384 27343 ft 432 kts 321°
2026-05-05 19:34 47.24934 4.88793 27726 ft 434 kts 321°
2026-05-05 19:35 47.29855 4.83564 28443 ft 439 kts 322°
2026-05-05 19:35 47.32337 4.80926 28779 ft 441 kts 322°
2026-05-05 19:35 47.34832 4.78270 29127 ft 444 kts 322°
2026-05-05 19:35 47.37340 4.75595 29461 ft 446 kts 322°
2026-05-05 19:36 47.39858 4.72906 29808 ft 448 kts 322°
2026-05-05 19:36 47.42384 4.70202 30110 ft 450 kts 322°
2026-05-05 19:36 47.44926 4.67478 30375 ft 452 kts 322°
2026-05-05 19:36 47.47478 4.64740 30616 ft 455 kts 322°
2026-05-05 19:37 47.50044 4.61991 30877 ft 457 kts 322°
2026-05-05 19:37 47.52627 4.59223 31103 ft 460 kts 322°
2026-05-05 19:37 47.55218 4.56439 31408 ft 460 kts 322°
2026-05-05 19:37 47.57800 4.53659 31781 ft 459 kts 322°
2026-05-05 19:38 47.60380 4.50875 32136 ft 458 kts 322°
2026-05-05 19:38 47.62910 4.48144 32464 ft 458 kts 322°
2026-05-05 19:38 47.65530 4.45315 32807 ft 458 kts 322°
2026-05-05 19:38 47.68101 4.42533 33147 ft 457 kts 322°
2026-05-05 19:39 47.70668 4.39751 33486 ft 457 kts 322°
2026-05-05 19:39 47.73233 4.36966 33824 ft 457 kts 322°
2026-05-05 19:39 47.75792 4.34182 34109 ft 456 kts 322°
2026-05-05 19:39 47.78318 4.31433 34383 ft 456 kts 322°
2026-05-05 19:40 47.80881 4.28644 34652 ft 456 kts 322°
2026-05-05 19:40 47.83436 4.25860 34914 ft 455 kts 322°
2026-05-05 19:40 47.85987 4.23071 35167 ft 455 kts 322°
2026-05-05 19:40 47.88541 4.20273 35424 ft 455 kts 322°
2026-05-05 19:41 47.91087 4.17483 35665 ft 455 kts 322°
2026-05-05 19:41 47.93636 4.14689 35805 ft 455 kts 322°
2026-05-05 19:41 47.96172 4.11905 35840 ft 451 kts 322°
2026-05-05 19:42 48.00394 4.07262 35830 ft 449 kts 322°
2026-05-05 19:42 48.05417 4.01728 35825 ft 448 kts 322°
2026-05-05 19:43 48.10404 3.96227 35819 ft 448 kts 322°
2026-05-05 19:43 48.15418 3.90675 35817 ft 448 kts 322°
2026-05-05 19:44 48.20427 3.85113 35812 ft 448 kts 322°
2026-05-05 19:44 48.25436 3.79536 35812 ft 448 kts 322°
2026-05-05 19:45 48.30441 3.73945 35826 ft 448 kts 322°
2026-05-05 19:45 48.35446 3.68348 35819 ft 448 kts 322°
2026-05-05 19:46 48.40449 3.62743 35822 ft 448 kts 322°
2026-05-05 19:46 48.45444 3.57130 35821 ft 448 kts 322°
2026-05-05 19:47 48.50437 3.51503 35823 ft 448 kts 322°
2026-05-05 19:47 48.55431 3.45857 35833 ft 448 kts 322°
2026-05-05 19:48 48.60416 3.40217 35822 ft 448 kts 323°
2026-05-05 19:48 48.65402 3.34566 35823 ft 448 kts 323°
2026-05-05 19:49 48.70382 3.28898 35825 ft 448 kts 323°
2026-05-05 19:49 48.75360 3.23223 35826 ft 448 kts 322°
2026-05-05 19:50 48.80327 3.17529 35826 ft 448 kts 322°
2026-05-05 19:50 48.85266 3.11859 35829 ft 448 kts 322°
2026-05-05 19:51 48.90266 3.06108 35845 ft 448 kts 322°
2026-05-05 19:51 48.95238 3.00387 35839 ft 448 kts 322°
2026-05-05 19:52 49.00174 2.94692 35838 ft 448 kts 322°
2026-05-05 19:52 49.05141 2.88938 35835 ft 448 kts 322°
2026-05-05 19:53 49.10103 2.83163 35833 ft 449 kts 322°
2026-05-05 19:53 49.15061 2.77372 35839 ft 449 kts 322°
2026-05-05 19:54 49.20029 2.71573 35839 ft 449 kts 322°
2026-05-05 19:54 49.24997 2.65776 35857 ft 449 kts 323°
2026-05-05 19:55 49.29963 2.59963 35845 ft 449 kts 322°
2026-05-05 19:55 49.34914 2.54126 35851 ft 450 kts 322°
2026-05-05 19:56 49.39848 2.48287 35863 ft 450 kts 322°
2026-05-05 19:56 49.44821 2.42394 35862 ft 450 kts 322°
2026-05-05 19:57 49.49774 2.36529 35859 ft 449 kts 322°
2026-05-05 19:57 49.54722 2.30650 35851 ft 449 kts 322°
2026-05-05 19:58 49.59670 2.24753 35864 ft 450 kts 322°
2026-05-05 19:58 49.64612 2.18840 35876 ft 450 kts 322°
2026-05-05 19:59 49.69554 2.12911 35884 ft 450 kts 322°
2026-05-05 19:59 49.74498 2.06965 35885 ft 450 kts 321°
2026-05-05 20:00 49.79372 2.01100 35715 ft 450 kts 322°
2026-05-05 20:00 49.81875 1.98089 35470 ft 449 kts 322°
2026-05-05 20:00 49.84326 1.95133 35128 ft 445 kts 322°
2026-05-05 20:00 49.86764 1.92189 34580 ft 444 kts 322°
2026-05-05 20:01 49.89190 1.89239 34053 ft 442 kts 322°
2026-05-05 20:01 49.91606 1.86297 33461 ft 441 kts 322°
2026-05-05 20:01 49.94011 1.83370 32943 ft 437 kts 322°
2026-05-05 20:01 49.96393 1.80469 32423 ft 434 kts 322°
2026-05-05 20:02 49.98757 1.77585 31905 ft 430 kts 322°
2026-05-05 20:02 50.01103 1.74720 31398 ft 427 kts 322°
2026-05-05 20:02 50.03427 1.71880 30897 ft 424 kts 322°
2026-05-05 20:02 50.05732 1.69056 30435 ft 420 kts 323°
2026-05-05 20:03 50.08010 1.66237 29951 ft 417 kts 322°
2026-05-05 20:03 50.10223 1.63354 29451 ft 412 kts 320°
2026-05-05 20:03 50.12368 1.60444 29011 ft 406 kts 319°
2026-05-05 20:03 50.14467 1.57532 28574 ft 401 kts 319°
2026-05-05 20:04 50.16532 1.54657 28155 ft 395 kts 319°
2026-05-05 20:04 50.18574 1.51830 27733 ft 390 kts 319°
2026-05-05 20:04 50.20600 1.49050 27306 ft 386 kts 319°
2026-05-05 20:04 50.22608 1.46306 26890 ft 381 kts 319°
2026-05-05 20:05 50.24595 1.43597 26461 ft 378 kts 319°
2026-05-05 20:05 50.26567 1.40909 26033 ft 375 kts 319°
2026-05-05 20:05 50.28525 1.38241 25598 ft 372 kts 319°
2026-05-05 20:05 50.30464 1.35592 25159 ft 369 kts 319°
2026-05-05 20:06 50.32393 1.32950 24698 ft 367 kts 319°
2026-05-05 20:06 50.34307 1.30317 24244 ft 366 kts 319°
2026-05-05 20:06 50.36212 1.27690 23787 ft 364 kts 319°
2026-05-05 20:06 50.38108 1.25074 23292 ft 363 kts 319°
2026-05-05 20:07 50.39998 1.22469 22817 ft 360 kts 319°
2026-05-05 20:07 50.41871 1.19885 22366 ft 357 kts 319°
2026-05-05 20:07 50.43727 1.17318 21916 ft 355 kts 319°
2026-05-05 20:07 50.45573 1.14764 21472 ft 352 kts 320°
2026-05-05 20:08 50.47404 1.12226 21042 ft 350 kts 320°
2026-05-05 20:08 50.49227 1.09706 20614 ft 348 kts 319°
2026-05-05 20:08 50.51038 1.07198 20188 ft 346 kts 320°
2026-05-05 20:08 50.52726 1.04505 19752 ft 345 kts 314°
2026-05-05 20:09 50.54359 1.01751 19329 ft 344 kts 314°
2026-05-05 20:09 50.55985 0.99004 18908 ft 342 kts 314°
2026-05-05 20:09 50.57607 0.96267 18484 ft 342 kts 314°
2026-05-05 20:09 50.59225 0.93536 18041 ft 341 kts 314°
2026-05-05 20:10 50.60838 0.90817 17605 ft 339 kts 315°
2026-05-05 20:10 50.62438 0.88110 17196 ft 336 kts 315°
2026-05-05 20:10 50.64024 0.85417 16785 ft 334 kts 314°
2026-05-05 20:10 50.65600 0.82736 16386 ft 332 kts 314°
2026-05-05 20:11 50.67170 0.80072 15993 ft 331 kts 314°
2026-05-05 20:11 50.68680 0.77392 15521 ft 333 kts 312°
2026-05-05 20:11 50.70160 0.74570 15017 ft 335 kts 310°
2026-05-05 20:11 50.71616 0.71682 14540 ft 337 kts 309°
2026-05-05 20:12 50.73055 0.68789 14103 ft 336 kts 309°
2026-05-05 20:12 50.74499 0.65894 13788 ft 332 kts 310°
2026-05-05 20:12 50.75927 0.63042 13393 ft 330 kts 310°
2026-05-05 20:12 50.77359 0.60200 12726 ft 324 kts 310°
2026-05-05 20:13 50.78756 0.57443 12038 ft 319 kts 310°
2026-05-05 20:13 50.80110 0.54780 11495 ft 310 kts 310°
2026-05-05 20:13 50.81433 0.52176 11068 ft 298 kts 310°
2026-05-05 20:13 50.82710 0.49658 10701 ft 287 kts 310°
2026-05-05 20:14 50.83912 0.47279 10589 ft 267 kts 310°
2026-05-05 20:14 50.85039 0.45049 10363 ft 254 kts 310°
2026-05-05 20:14 50.86130 0.42894 9946 ft 249 kts 310°
2026-05-05 20:14 50.87207 0.40769 9452 ft 246 kts 310°
2026-05-05 20:15 50.88272 0.38664 8937 ft 244 kts 310°
2026-05-05 20:15 50.89328 0.36572 8416 ft 242 kts 310°
2026-05-05 20:15 50.90373 0.34497 8005 ft 240 kts 310°
2026-05-05 20:15 50.91412 0.32432 7642 ft 239 kts 310°
2026-05-05 20:16 50.92445 0.30381 7338 ft 239 kts 310°
2026-05-05 20:16 50.93481 0.28322 6992 ft 238 kts 310°
2026-05-05 20:16 50.94512 0.26268 6641 ft 238 kts 310°
2026-05-05 20:16 50.95535 0.24212 6324 ft 236 kts 310°
2026-05-05 20:17 50.96538 0.22176 5948 ft 235 kts 310°
2026-05-05 20:17 50.97540 0.20136 5629 ft 232 kts 310°
2026-05-05 20:17 50.98533 0.18109 5244 ft 234 kts 311°
2026-05-05 20:17 50.99518 0.16096 4934 ft 231 kts 311°
2026-05-05 20:18 51.00512 0.14071 4552 ft 232 kts 310°
2026-05-05 20:18 51.01348 0.11903 4212 ft 233 kts 297°
2026-05-05 20:18 51.01809 0.09467 4075 ft 226 kts 282°
2026-05-05 20:18 51.01957 0.06997 4077 ft 225 kts 278°
2026-05-05 20:19 51.02085 0.04527 4065 ft 225 kts 278°
2026-05-05 20:19 51.02216 0.02055 4058 ft 225 kts 278°
2026-05-05 20:19 51.02347 -0.00419 4005 ft 224 kts 278°
2026-05-05 20:19 51.02479 -0.02887 4004 ft 224 kts 277°
2026-05-05 20:20 51.02606 -0.05351 4009 ft 224 kts 277°
2026-05-05 20:20 51.02732 -0.07818 4009 ft 224 kts 277°
2026-05-05 20:20 51.02857 -0.10290 4009 ft 224 kts 277°
2026-05-05 20:20 51.02981 -0.12757 4010 ft 224 kts 277°
2026-05-05 20:21 51.03106 -0.15223 4008 ft 224 kts 277°
2026-05-05 20:21 51.03233 -0.17690 4008 ft 224 kts 277°
2026-05-05 20:21 51.03358 -0.20152 4009 ft 224 kts 277°
2026-05-05 20:21 51.03479 -0.22605 3805 ft 222 kts 277°
2026-05-05 20:22 51.03598 -0.25052 3525 ft 222 kts 276°
2026-05-05 20:22 51.03717 -0.27494 3259 ft 221 kts 276°
2026-05-05 20:22 51.03837 -0.29927 3052 ft 220 kts 276°
2026-05-05 20:22 51.03958 -0.32358 2996 ft 221 kts 276°
2026-05-05 20:23 51.04076 -0.34792 3010 ft 221 kts 276°
2026-05-05 20:23 51.04193 -0.37200 3013 ft 222 kts 276°
2026-05-05 20:23 51.04311 -0.39674 3013 ft 222 kts 276°
2026-05-05 20:23 51.04428 -0.42085 3012 ft 220 kts 276°
2026-05-05 20:24 51.04541 -0.44434 3006 ft 207 kts 276°
2026-05-05 20:24 51.04745 -0.46607 3008 ft 192 kts 292°
2026-05-05 20:24 51.05419 -0.48285 3015 ft 174 kts 319°
2026-05-05 20:24 51.06421 -0.49240 3007 ft 166 kts 344°
2026-05-05 20:25 51.07544 -0.49409 3015 ft 162 kts
2026-05-05 20:25 51.08591 -0.48817 3009 ft 161 kts 33°
2026-05-05 20:25 51.09460 -0.47704 3014 ft 161 kts 40°
2026-05-05 20:25 51.10315 -0.46561 3016 ft 161 kts 40°
2026-05-05 20:26 51.11020 -0.45194 3002 ft 161 kts 63°
2026-05-05 20:26 51.11350 -0.43483 2999 ft 163 kts 73°
2026-05-05 20:26 51.11629 -0.41734 2864 ft 163 kts 75°
2026-05-05 20:26 51.11888 -0.39984 2672 ft 162 kts 76°
2026-05-05 20:27 51.12138 -0.38235 2486 ft 162 kts 76°
2026-05-05 20:27 51.12384 -0.36492 2270 ft 161 kts 77°
2026-05-05 20:27 51.12623 -0.34791 2051 ft 153 kts 77°
2026-05-05 20:27 51.12845 -0.33200 1871 ft 141 kts 77°
2026-05-05 20:28 51.13054 -0.31708 1673 ft 135 kts 78°
2026-05-05 20:28 51.13256 -0.30261 1485 ft 133 kts 77°
2026-05-05 20:28 51.13390 -0.29310 1354 ft 133 kts 78°
2026-05-05 20:28 51.13589 -0.27882 1181 ft 132 kts 77°
2026-05-05 20:29 51.13787 -0.26450 1000 ft 132 kts 78°
2026-05-05 20:29 51.13985 -0.25025 792 ft 132 kts 77°
2026-05-05 20:29 51.14183 -0.23609 625 ft 130 kts 77°
2026-05-05 20:29 51.14377 -0.22209 435 ft 129 kts 77°
2026-05-05 20:30 51.14570 -0.20818 271 ft 129 kts 77°
2026-05-05 20:30 51.14751 -0.19509 211 ft 101 kts 78°
2026-05-05 20:30 51.14836 -0.18890 209 ft 13 kts 77°
2026-05-05 20:30 51.14854 -0.18760 211 ft 17 kts 76°
2026-05-05 20:31 51.14920 -0.18562 212 ft 23 kts 51°
2026-05-05 20:31 51.15019 -0.18363 208 ft 19 kts 51°
2026-05-05 20:31 51.15071 -0.18262 212 ft 0 kts 50°
2026-05-05 20:32 51.15078 -0.18249 210 ft 3 kts 50°
2026-05-05 20:32 51.15093 -0.18220 208 ft 4 kts 50°
2026-05-05 20:33 51.15111 -0.18184 211 ft 3 kts 55°
2026-05-05 20:33 51.15126 -0.18122 212 ft 9 kts 70°
2026-05-05 20:33 51.15188 -0.18081 205 ft 11 kts 352°
2026-05-05 20:33 51.15264 -0.18105 205 ft 11 kts 348°
2026-05-05 20:34 51.15332 -0.18129 207 ft 9 kts 347°
2026-05-05 20:34 51.15390 -0.18150 205 ft 8 kts 347°
2026-05-05 20:34 51.15439 -0.18156 205 ft 6 kts 23°
2026-05-05 20:34 51.15459 -0.18101 205 ft 7 kts 75°
2026-05-05 20:35 51.15470 -0.18013 205 ft 9 kts 79°
2026-05-05 20:35 51.15483 -0.17920 208 ft 5 kts 76°
2026-05-05 20:35 51.15484 -0.17911 206 ft 0 kts 76°
2026-05-05 20:36 51.15489 -0.17877 205 ft 6 kts 78°
2026-05-05 20:36 51.15502 -0.17785 205 ft 10 kts 77°
2026-05-05 20:36 51.15479 -0.17719 211 ft 6 kts 165°
2026-05-05 20:36 51.15445 -0.17708 205 ft 3 kts 168°
2026-05-05 20:37 51.15435 -0.17705 205 ft 0 kts 168°
2026-05-05 20:39 51.15434 -0.17704 205 ft 0 kts 167°